Jacksonville, IL

2:59 AM CDT on October 19, 2019 (GMT -0500)
Jacksonville Municipal

Weather History for KIJX - September, 2019

Change the Weather History Date:

Friday, September 20, 2019

  Actual Average (KSPI) Record (KSPI)
Temperature  
Mean Temperature 76 °F -  
Max Temperature 89 °F 77 °F 96 °F (1931)
Min Temperature 64 °F 54 °F 34 °F (1991)
Cooling Degree Days 12    
Growing Degree Days 26 (Base 50)    
Moisture  
Dew Point 67 °F    
Average Humidity 70    
Maximum Humidity 93    
Minimum Humidity 50    
Precipitation  
Precipitation 0.00 in - - ()
Sea Level Pressure  
Sea Level Pressure 30.09 in    
Wind  
Wind Speed 7 mph (SSE)    
Max Wind Speed 13 mph    
Max Gust Speed 18 mph    
Visibility 10 miles    
Events      
Averages and records for this station are not official NWS values.
T = Trace of Precipitation, MM = Missing Value Source: NWS Daily Summary

Daily Weather History Graph

Daily Weather History Graph

Search for Another Location

Airport or City:

Astronomy

Sep. 20, 2019 Rise Set
Actual Time 6:46 AM CDT 7:01 PM CDT
Civil Twilight 6:19 AM CDT 7:28 PM CDT
Nautical Twilight 5:47 AM CDT 8:00 PM CDT
Astronomical Twilight 5:15 AM CDT 8:32 PM CDT
Moon 10:52 PM CDT (9/20) 12:50 PM CDT (9/20)
Length of Visible Light 13h 09m
Length of Day
12h 15m
Waning Gibbous, 65% of the Moon is Illuminated
Sep 20
Waning Gibbous
Sep 21
Last Quarter
Sep 28
New
Oct 5
First Quarter
Oct 13
Full

Hourly Weather History & Observations

Time (CDT) Temp. Heat Index Dew Point Humidity Pressure Visibility Wind Dir Wind Speed Gust Speed Precip Events Conditions
12:15 AM 72.9 °F - 66.7 °F 81% 30.06 in 10.0 mi SSE 4.6 mph - N/A   Mostly Cloudy
12:35 AM 73.6 °F - 66.2 °F 78% 30.06 in 10.0 mi SSE 5.8 mph - N/A   Scattered Clouds
12:55 AM 73.0 °F - 65.7 °F 78% 30.07 in 10.0 mi SSE 3.5 mph - N/A   Clear
1:15 AM 73.0 °F - 65.5 °F 77% 30.07 in 10.0 mi South 4.6 mph - N/A   Clear
1:35 AM 73.4 °F - 65.3 °F 76% 30.07 in 10.0 mi South 5.8 mph - N/A   Clear
1:55 AM 72.5 °F - 64.9 °F 77% 30.07 in 10.0 mi South 5.8 mph - N/A   Clear
2:15 AM 73.4 °F - 64.4 °F 73% 30.06 in 10.0 mi SSE 5.8 mph - N/A   Clear
2:35 AM 72.7 °F - 63.9 °F 74% 30.06 in 10.0 mi SSE 5.8 mph - N/A   Clear
2:55 AM 72.0 °F - 63.9 °F 76% 30.07 in 10.0 mi South 4.6 mph - N/A   Clear
3:15 AM 72.1 °F - 63.5 °F 74% 30.07 in 10.0 mi SSE 4.6 mph - N/A   Clear
3:35 AM 69.8 °F - 63.5 °F 80% 30.07 in 10.0 mi Calm Calm - N/A   Clear
3:55 AM 69.4 °F - 63.5 °F 81% 30.07 in 10.0 mi SSE 4.6 mph - N/A   Clear
4:15 AM 69.8 °F - 63.5 °F 80% 30.07 in 10.0 mi SSE 4.6 mph - N/A   Clear
4:35 AM 69.8 °F - 63.7 °F 81% 30.07 in 10.0 mi SSE 4.6 mph - N/A   Clear
4:55 AM 70.2 °F - 63.7 °F 80% 30.08 in 10.0 mi SSE 4.6 mph - N/A   Clear
5:15 AM 69.6 °F - 63.7 °F 81% 30.08 in 10.0 mi SSE 6.9 mph - N/A   Clear
5:35 AM 69.1 °F - 63.5 °F 82% 30.08 in 10.0 mi SSE 5.8 mph - N/A   Clear
5:55 AM 69.1 °F - 63.5 °F 82% 30.08 in 10.0 mi SSE 4.6 mph - N/A   Clear
6:15 AM 69.8 °F - 63.1 °F 79% 30.08 in 10.0 mi South 5.8 mph - N/A   Clear
6:35 AM 69.8 °F - 62.8 °F 78% 30.09 in 10.0 mi SE 3.5 mph - N/A   Clear
6:55 AM 64.8 °F - 62.6 °F 93% 30.09 in 10.0 mi NE 9.2 mph - N/A   Clear
7:15 AM 66.4 °F - 63.0 °F 89% 30.11 in 10.0 mi ENE 6.9 mph - N/A   Clear
7:35 AM 67.1 °F - 63.0 °F 87% 30.11 in 10.0 mi East 4.6 mph - N/A   Clear
7:55 AM 67.6 °F - 63.9 °F 88% 30.12 in 10.0 mi East 6.9 mph - N/A   Clear
8:15 AM 70.3 °F - 64.4 °F 81% 30.13 in 10.0 mi East 5.8 mph - N/A   Clear
8:35 AM 72.3 °F - 64.6 °F 77% 30.14 in 10.0 mi ESE 8.1 mph - N/A   Clear
8:55 AM 73.6 °F - 64.9 °F 74% 30.14 in 10.0 mi East 8.1 mph - N/A   Clear
9:15 AM 75.6 °F - 65.1 °F 70% 30.13 in 10.0 mi East 12.7 mph - N/A   Clear
9:35 AM 77.5 °F - 64.9 °F 65% 30.13 in 10.0 mi East 10.4 mph - N/A   Clear
9:55 AM 78.3 °F - 64.9 °F 63% 30.13 in 10.0 mi ESE 10.4 mph - N/A   Clear
10:15 AM 79.3 °F - 64.8 °F 61% 30.13 in 10.0 mi ESE 9.2 mph - N/A   Clear
10:35 AM 80.6 °F 82.3 °F 64.8 °F 58% 30.13 in 10.0 mi ESE 6.9 mph - N/A   Clear
10:55 AM 81.7 °F 83.6 °F 65.5 °F 58% 30.13 in 10.0 mi ESE 6.9 mph - N/A   Clear
11:15 AM 82.6 °F 84.9 °F 66.4 °F 58% 30.13 in 10.0 mi SE 6.9 mph - N/A   Clear
11:35 AM 83.5 °F 86.2 °F 67.1 °F 58% 30.12 in 10.0 mi SE 6.9 mph - N/A   Clear
11:55 AM 84.4 °F 87.3 °F 67.6 °F 57% 30.12 in 10.0 mi South 6.9 mph - N/A   Clear
12:15 PM 86.0 °F 90.1 °F 69.3 °F 57% 30.11 in 10.0 mi South 6.9 mph - N/A   Clear
12:35 PM 86.4 °F 90.7 °F 69.3 °F 57% 30.10 in 10.0 mi SSE 5.8 mph - N/A   Clear
12:55 PM 87.1 °F 91.6 °F 69.8 °F 56% 30.10 in 10.0 mi SSE 9.2 mph - N/A   Clear
1:15 PM 87.8 °F 91.4 °F 68.4 °F 52% 30.09 in 10.0 mi South 10.4 mph - N/A   Clear
1:35 PM 88.2 °F 92.5 °F 68.9 °F 53% 30.08 in 10.0 mi SE 11.5 mph 17.3 mph N/A   Clear
1:55 PM 89.1 °F 94.6 °F 70.3 °F 54% 30.08 in 10.0 mi SSE 6.9 mph - N/A   Scattered Clouds
2:15 PM 88.9 °F 93.0 °F 68.5 °F 51% 30.08 in 10.0 mi SSE 6.9 mph - N/A   Mostly Cloudy
2:35 PM 87.8 °F 91.1 °F 67.8 °F 51% 30.08 in 10.0 mi South 9.2 mph - N/A   Scattered Clouds
2:55 PM 88.2 °F 92.9 °F 69.6 °F 54% 30.07 in 10.0 mi South 10.4 mph 17.3 mph N/A   Scattered Clouds
3:15 PM 89.1 °F 93.3 °F 68.7 °F 51% 30.07 in 10.0 mi South 9.2 mph 18.4 mph N/A   Scattered Clouds
3:35 PM 89.1 °F 93.7 °F 69.1 °F 52% 30.06 in 10.0 mi South 10.4 mph 16.1 mph N/A   Scattered Clouds
3:55 PM 88.9 °F 92.6 °F 68.0 °F 50% 30.06 in 10.0 mi SSE 11.5 mph - N/A   Scattered Clouds
4:15 PM 88.2 °F 91.7 °F 68.2 °F 51% 30.05 in 10.0 mi SSE 11.5 mph - N/A   Scattered Clouds
4:35 PM 87.3 °F 91.2 °F 68.5 °F 54% 30.05 in 10.0 mi South 9.2 mph 16.1 mph N/A   Scattered Clouds
4:55 PM 86.9 °F 91.0 °F 68.7 °F 55% 30.05 in 10.0 mi South 11.5 mph 17.3 mph N/A   Clear
5:15 PM 86.2 °F 90.0 °F 68.7 °F 56% 30.05 in 10.0 mi SSE 10.4 mph - N/A   Clear
5:35 PM 85.6 °F 90.1 °F 69.6 °F 59% 30.05 in 10.0 mi SSE 6.9 mph - N/A   Clear
5:55 PM 85.1 °F 88.5 °F 68.2 °F 57% 30.05 in 10.0 mi SSE 6.9 mph - N/A   Clear
6:15 PM 84.0 °F 87.3 °F 68.4 °F 59% 30.05 in 10.0 mi SSE 8.1 mph - N/A   Clear
6:35 PM 82.6 °F 85.9 °F 68.9 °F 63% 30.05 in 10.0 mi SSE 8.1 mph - N/A   Clear
6:55 PM 81.5 °F 84.6 °F 68.9 °F 65% 30.06 in 10.0 mi SSE 5.8 mph - N/A   Clear
7:15 PM 80.1 °F 82.9 °F 68.9 °F 69% 30.06 in 10.0 mi SSE 6.9 mph - N/A   Scattered Clouds
7:35 PM 79.2 °F - 69.1 °F 71% 30.07 in 10.0 mi SE 4.6 mph - N/A   Scattered Clouds
7:55 PM 77.5 °F - 69.3 °F 76% 30.07 in 10.0 mi SE 6.9 mph - N/A   Clear
8:15 PM 79.2 °F - 69.8 °F 73% 30.09 in 10.0 mi South 10.4 mph 17.3 mph N/A   Clear
8:35 PM 78.3 °F - 68.4 °F 71% 30.10 in 10.0 mi South 11.5 mph 18.4 mph N/A   Scattered Clouds
8:55 PM 77.2 °F - 67.1 °F 71% 30.10 in 10.0 mi South 10.4 mph - N/A   Clear
9:15 PM 76.6 °F - 67.1 °F 72% 30.10 in 10.0 mi South 6.9 mph - N/A   Clear
9:35 PM 76.1 °F - 66.4 °F 72% 30.10 in 10.0 mi SSE 10.4 mph - N/A   Clear
9:55 PM 74.8 °F - 66.7 °F 76% 30.10 in 10.0 mi South 12.7 mph 17.3 mph N/A   Clear
10:15 PM 74.3 °F - 66.9 °F 78% 30.10 in 10.0 mi SSE 9.2 mph - N/A   Clear
10:35 PM 73.4 °F - 67.5 °F 82% 30.10 in 10.0 mi South 9.2 mph - N/A   Scattered Clouds
10:55 PM 73.4 °F - 68.0 °F 83% 30.10 in 10.0 mi South 8.1 mph - N/A   Scattered Clouds
11:15 PM 72.9 °F - 68.5 °F 86% 30.10 in 10.0 mi South 9.2 mph - N/A   Clear
11:35 PM 73.0 °F - 68.9 °F 87% 30.10 in 10.0 mi South 10.4 mph - N/A   Clear
11:55 PM 73.2 °F - 68.9 °F 86% 30.10 in 10.0 mi South 9.2 mph - N/A   Clear